JBU31 KBOS-EHAM

Flight info

Callsign JBU31
Flight time N/A
Altitude 33000
Route LBSTA8 LBSTA DCT EBONY N505B ALLRY/M078F330 DCT 51N050W/N0450F330 DCT BEXET DCT INKUR DCT LIFFY UL975 WAL M16 DOLAS L603 LAMSO
Aircraft A21N/M-SDE3FGHIRWY/LB1

Departure

Time N/A
Airport Boston Logan International Airport (KBOS)

Arrival

Time 2026-05-04 01:48
Airport Amsterdam Airport Schiphol (EHAM)
Time Latitude Longitude Altitude Speed Heading
2026-05-04 00:34 53.70229 -8.64801 33027 ft 422 kts 90°
2026-05-04 00:35 53.69848 -8.59935 33030 ft 423 kts 90°
2026-05-04 00:35 53.69073 -8.50137 33025 ft 422 kts 91°
2026-05-04 00:36 53.68290 -8.40323 33027 ft 423 kts 91°
2026-05-04 00:36 53.67500 -8.30553 33022 ft 423 kts 91°
2026-05-04 00:37 53.66703 -8.20803 33018 ft 423 kts 91°
2026-05-04 00:37 53.65896 -8.11006 33019 ft 423 kts 91°
2026-05-04 00:38 53.65080 -8.01198 33023 ft 424 kts 91°
2026-05-04 00:38 53.64259 -7.91437 33009 ft 422 kts 91°
2026-05-04 00:39 53.63432 -7.81708 33016 ft 422 kts 91°
2026-05-04 00:39 53.62595 -7.71948 33010 ft 422 kts 91°
2026-05-04 00:40 53.61751 -7.62179 33018 ft 422 kts 91°
2026-05-04 00:40 53.60907 -7.52482 33010 ft 422 kts 91°
2026-05-04 00:41 53.60044 -7.42729 33012 ft 423 kts 91°
2026-05-04 00:41 53.59383 -7.32989 33010 ft 419 kts 89°
2026-05-04 00:42 53.58840 -7.23256 33012 ft 421 kts 89°
2026-05-04 00:42 53.58291 -7.13430 33008 ft 421 kts 89°
2026-05-04 00:43 53.57737 -7.03694 33008 ft 421 kts 89°
2026-05-04 00:43 53.57175 -6.93922 33008 ft 421 kts 89°
2026-05-04 00:44 53.56611 -6.84215 33008 ft 421 kts 90°
2026-05-04 00:44 53.56031 -6.74414 33008 ft 421 kts 89°
2026-05-04 00:45 53.55449 -6.64688 33012 ft 423 kts 90°
2026-05-04 00:45 53.54850 -6.54826 33012 ft 424 kts 90°
2026-05-04 00:46 53.54245 -6.45021 33011 ft 424 kts 90°
2026-05-04 00:46 53.53633 -6.35221 33005 ft 424 kts 90°
2026-05-04 00:47 53.53010 -6.25382 33007 ft 426 kts 91°
2026-05-04 00:47 53.52375 -6.15472 33007 ft 427 kts 91°
2026-05-04 00:48 53.51734 -6.05590 33014 ft 428 kts 91°
2026-05-04 00:48 53.51083 -5.95688 33005 ft 429 kts 91°
2026-05-04 00:49 53.50426 -5.85793 33009 ft 429 kts 91°
2026-05-04 00:49 53.49757 -5.75870 33010 ft 429 kts 91°
2026-05-04 00:50 53.49083 -5.65945 33006 ft 430 kts 91°
2026-05-04 00:50 53.48399 -5.56042 32999 ft 430 kts 92°
2026-05-04 00:51 53.47865 -5.46083 32992 ft 429 kts 88°
2026-05-04 00:51 53.47583 -5.36093 32999 ft 429 kts 88°
2026-05-04 00:52 53.47307 -5.26135 32997 ft 430 kts 89°
2026-05-04 00:52 53.47015 -5.16118 32990 ft 431 kts 89°
2026-05-04 00:53 53.46705 -5.06138 32987 ft 431 kts 89°
2026-05-04 00:53 53.46389 -4.96126 32983 ft 432 kts 89°
2026-05-04 00:54 53.46059 -4.86084 32983 ft 433 kts 89°
2026-05-04 00:54 53.45726 -4.76009 32979 ft 433 kts 89°
2026-05-04 00:55 53.45386 -4.65971 32980 ft 434 kts 89°
2026-05-04 00:55 53.45033 -4.55898 32979 ft 435 kts 89°
2026-05-04 00:56 53.44674 -4.45793 32978 ft 436 kts 90°
2026-05-04 00:56 53.44304 -4.35698 32980 ft 436 kts 90°
2026-05-04 00:57 53.43926 -4.25608 32974 ft 438 kts 91°
2026-05-04 00:57 53.43537 -4.15450 32966 ft 438 kts 91°
2026-05-04 00:58 53.43139 -4.05250 32971 ft 438 kts 91°
2026-05-04 00:58 53.42738 -3.95138 32974 ft 440 kts 91°
2026-05-04 00:59 53.42315 -3.84864 32978 ft 442 kts 91°
2026-05-04 00:59 53.41890 -3.74620 32970 ft 443 kts 91°
2026-05-04 01:00 53.41456 -3.64373 32970 ft 445 kts 91°
2026-05-04 01:00 53.41007 -3.54080 32971 ft 446 kts 91°
2026-05-04 01:01 53.40547 -3.43762 32973 ft 448 kts 92°
2026-05-04 01:01 53.40076 -3.33319 32970 ft 449 kts 92°
2026-05-04 01:02 53.39600 -3.22930 32973 ft 450 kts 93°
2026-05-04 01:02 53.39114 -3.12506 32974 ft 450 kts 92°
2026-05-04 01:03 53.38715 -3.02116 32975 ft 450 kts 92°
2026-05-04 01:03 53.38329 -2.91690 32981 ft 451 kts 92°
2026-05-04 01:04 53.37929 -2.81204 32984 ft 453 kts 92°
2026-05-04 01:04 53.37518 -2.70764 32982 ft 454 kts 92°
2026-05-04 01:05 53.37096 -2.60262 32983 ft 455 kts 92°
2026-05-04 01:05 53.36665 -2.49717 32987 ft 455 kts 92°
2026-05-04 01:06 53.36225 -2.39182 32986 ft 456 kts 92°
2026-05-04 01:06 53.35755 -2.28632 32987 ft 457 kts 95°
2026-05-04 01:07 53.34843 -2.18137 32983 ft 458 kts 99°
2026-05-04 01:07 53.33763 -2.07666 32973 ft 459 kts 99°
2026-05-04 01:08 53.32674 -1.97188 32959 ft 459 kts 99°
2026-05-04 01:08 53.31585 -1.86732 32950 ft 459 kts 99°
2026-05-04 01:09 53.30486 -1.76240 32953 ft 459 kts 100°
2026-05-04 01:09 53.29379 -1.65808 32954 ft 459 kts 100°
2026-05-04 01:10 53.28257 -1.55381 32953 ft 460 kts 100°
2026-05-04 01:10 53.27120 -1.44912 32955 ft 460 kts 100°
2026-05-04 01:11 53.25974 -1.34405 32947 ft 460 kts 101°
2026-05-04 01:11 53.24829 -1.23974 32954 ft 460 kts 101°
2026-05-04 01:12 53.23672 -1.13523 32954 ft 459 kts 101°
2026-05-04 01:12 53.22512 -1.03112 32956 ft 459 kts 101°
2026-05-04 01:13 53.21333 -0.92607 32952 ft 459 kts 101°
2026-05-04 01:13 53.20153 -0.82247 32956 ft 459 kts 101°
2026-05-04 01:14 53.18948 -0.71829 32955 ft 460 kts 102°
2026-05-04 01:14 53.17738 -0.61399 32953 ft 460 kts 102°
2026-05-04 01:15 53.16521 -0.50975 32942 ft 460 kts 102°
2026-05-04 01:15 53.15288 -0.40489 32964 ft 461 kts 102°
2026-05-04 01:16 53.14053 -0.30055 32960 ft 461 kts 103°
2026-05-04 01:16 53.12806 -0.19600 32964 ft 462 kts 103°
2026-05-04 01:17 53.11548 -0.09131 32957 ft 462 kts 103°
2026-05-04 01:17 53.10286 0.01274 32958 ft 462 kts 103°
2026-05-04 01:18 53.09009 0.11732 32942 ft 462 kts 103°
2026-05-04 01:18 53.07732 0.22105 32947 ft 462 kts 103°
2026-05-04 01:19 53.06433 0.32571 32941 ft 463 kts 103°
2026-05-04 01:19 53.05128 0.43019 32936 ft 463 kts 103°
2026-05-04 01:20 53.03824 0.53384 32937 ft 463 kts 103°
2026-05-04 01:20 53.02495 0.63850 32931 ft 464 kts 103°
2026-05-04 01:21 53.01165 0.74270 32932 ft 464 kts 104°
2026-05-04 01:21 52.99817 0.84775 32929 ft 465 kts 104°
2026-05-04 01:22 52.98467 0.95187 32927 ft 466 kts 104°
2026-05-04 01:22 52.97149 1.05655 32920 ft 466 kts 103°
2026-05-04 01:23 52.95944 1.16169 32916 ft 465 kts 103°
2026-05-04 01:23 52.94739 1.26652 32917 ft 465 kts 103°
2026-05-04 01:24 52.93508 1.37201 32918 ft 466 kts 103°
2026-05-04 01:24 52.92270 1.47691 32912 ft 466 kts 103°
2026-05-04 01:25 52.91028 1.58141 32912 ft 466 kts 103°
2026-05-04 01:25 52.89765 1.68686 32905 ft 467 kts 104°
2026-05-04 01:26 52.88504 1.79123 32904 ft 467 kts 104°
2026-05-04 01:26 52.87218 1.89680 32905 ft 467 kts 104°
2026-05-04 01:27 52.85934 2.00153 32891 ft 468 kts 104°
2026-05-04 01:27 52.85286 2.05402 32561 ft 468 kts 104°
2026-05-04 01:27 52.84637 2.10650 32049 ft 466 kts 104°
2026-05-04 01:27 52.83989 2.15867 31412 ft 466 kts 104°
2026-05-04 01:28 52.83338 2.21091 30686 ft 468 kts 105°
2026-05-04 01:28 52.82676 2.26368 29876 ft 469 kts 104°
2026-05-04 01:28 52.82021 2.31586 29083 ft 470 kts 104°
2026-05-04 01:28 52.81356 2.36857 28280 ft 470 kts 104°
2026-05-04 01:29 52.80693 2.42094 27459 ft 471 kts 104°
2026-05-04 01:29 52.80024 2.47347 26614 ft 471 kts 104°
2026-05-04 01:29 52.79348 2.52629 25854 ft 469 kts 104°
2026-05-04 01:29 52.78680 2.57830 25307 ft 463 kts 104°
2026-05-04 01:30 52.78022 2.62950 24758 ft 457 kts 104°
2026-05-04 01:30 52.77360 2.68088 24197 ft 451 kts 104°
2026-05-04 01:30 52.76714 2.73074 23643 ft 446 kts 104°
2026-05-04 01:30 52.76065 2.78067 23082 ft 441 kts 104°
2026-05-04 01:31 52.75431 2.82915 22540 ft 436 kts 104°
2026-05-04 01:31 52.74797 2.87752 21990 ft 432 kts 104°
2026-05-04 01:31 52.74163 2.92574 21442 ft 428 kts 104°
2026-05-04 01:31 52.73397 2.97243 20893 ft 422 kts 110°
2026-05-04 01:32 52.72342 3.01678 20349 ft 416 kts 117°
2026-05-04 01:32 52.71010 3.05909 19797 ft 411 kts 121°
2026-05-04 01:32 52.69709 3.09642 19299 ft 408 kts 122°
2026-05-04 01:32 52.68288 3.13654 18757 ft 405 kts 122°
2026-05-04 01:33 52.66894 3.17594 18223 ft 402 kts 122°
2026-05-04 01:33 52.65498 3.21547 17687 ft 399 kts 122°
2026-05-04 01:33 52.64105 3.25496 17149 ft 396 kts 122°
2026-05-04 01:33 52.62748 3.29350 16618 ft 394 kts 122°
2026-05-04 01:34 52.61363 3.33272 16072 ft 391 kts 122°
2026-05-04 01:34 52.60019 3.37087 15541 ft 389 kts 121°
2026-05-04 01:34 52.58867 3.41102 15000 ft 389 kts 113°
2026-05-04 01:34 52.58058 3.45333 14469 ft 389 kts 105°
2026-05-04 01:35 52.57538 3.49662 13946 ft 387 kts 101°
2026-05-04 01:35 52.57088 3.54001 13415 ft 385 kts 101°
2026-05-04 01:35 52.56652 3.58298 12887 ft 383 kts 101°
2026-05-04 01:35 52.56216 3.62538 12368 ft 381 kts 101°
2026-05-04 01:36 52.55767 3.66811 11833 ft 379 kts 102°
2026-05-04 01:36 52.55320 3.71032 11312 ft 376 kts 102°
2026-05-04 01:36 52.54870 3.75235 10935 ft 368 kts 102°
2026-05-04 01:36 52.54434 3.79290 10740 ft 354 kts 102°
2026-05-04 01:37 52.54015 3.83167 10542 ft 342 kts 102°
2026-05-04 01:37 52.53605 3.86926 10382 ft 330 kts 102°
2026-05-04 01:37 52.53208 3.90558 10213 ft 319 kts 102°
2026-05-04 01:37 52.52821 3.94071 10046 ft 307 kts 103°
2026-05-04 01:38 52.52316 3.97395 9916 ft 294 kts 110°
2026-05-04 01:38 52.51678 4.00589 9786 ft 298 kts 105°
2026-05-04 01:38 52.51669 4.03972 9500 ft 300 kts 78°
2026-05-04 01:38 52.52237 4.07238 9284 ft 302 kts 73°
2026-05-04 01:39 52.52861 4.10521 9034 ft 301 kts 74°
2026-05-04 01:39 52.53428 4.13825 8727 ft 299 kts 76°
2026-05-04 01:39 52.53931 4.17123 8394 ft 297 kts 77°
2026-05-04 01:39 52.54390 4.20387 8050 ft 296 kts 78°
2026-05-04 01:40 52.54829 4.23666 7699 ft 294 kts 78°
2026-05-04 01:40 52.55255 4.26937 7353 ft 291 kts 78°
2026-05-04 01:40 52.55670 4.30168 7023 ft 289 kts 78°
2026-05-04 01:40 52.56079 4.33376 6693 ft 287 kts 78°
2026-05-04 01:41 52.56486 4.36571 6353 ft 285 kts 78°
2026-05-04 01:41 52.56887 4.39739 6011 ft 283 kts 78°
2026-05-04 01:41 52.57284 4.42885 5694 ft 281 kts 78°
2026-05-04 01:41 52.57669 4.45944 5584 ft 269 kts 78°
2026-05-04 01:42 52.58041 4.48891 5491 ft 257 kts 78°
2026-05-04 01:42 52.58318 4.51729 5463 ft 250 kts 85°
2026-05-04 01:42 52.58392 4.54590 5158 ft 252 kts 90°
2026-05-04 01:42 52.58393 4.57441 4828 ft 251 kts 91°
2026-05-04 01:43 52.58384 4.60287 4515 ft 250 kts 90°
2026-05-04 01:43 52.58364 4.63130 4211 ft 248 kts 94°
2026-05-04 01:43 52.57869 4.65767 3872 ft 243 kts 127°
2026-05-04 01:43 52.56770 4.67827 3601 ft 238 kts 135°
2026-05-04 01:44 52.55653 4.69767 3510 ft 231 kts 135°
2026-05-04 01:44 52.54576 4.71664 3413 ft 223 kts 136°
2026-05-04 01:44 52.53373 4.73059 3328 ft 212 kts 168°
2026-05-04 01:44 52.51916 4.73101 3103 ft 207 kts 191°
2026-05-04 01:45 52.50503 4.72724 2854 ft 207 kts 191°
2026-05-04 01:45 52.49070 4.72413 2555 ft 207 kts 188°
2026-05-04 01:45 52.46221 4.72082 1974 ft 206 kts 185°
2026-05-04 01:46 52.44832 4.71969 1779 ft 190 kts 185°
2026-05-04 01:46 52.43567 4.71861 1529 ft 176 kts 185°
2026-05-04 01:46 52.42388 4.71756 1274 ft 163 kts 185°
2026-05-04 01:46 52.41305 4.71658 1026 ft 148 kts 185°
2026-05-04 01:47 52.40332 4.71571 815 ft 135 kts 186°
2026-05-04 01:47 52.39402 4.71482 662 ft 134 kts 185°
2026-05-04 01:47 52.38474 4.71398 489 ft 133 kts 186°
2026-05-04 01:47 52.37548 4.71309 324 ft 132 kts 186°
2026-05-04 01:48 52.36637 4.71228 147 ft 132 kts 185°
2026-05-04 01:48 52.35729 4.71148 -3 ft 128 kts 185°
2026-05-04 01:48 52.34956 4.71073 -7 ft 88 kts 184°
2026-05-04 01:48 52.34512 4.71041 -7 ft 42 kts 176°
2026-05-04 01:49 52.34265 4.71163 -7 ft 21 kts 154°
2026-05-04 01:49 52.34129 4.71264 -8 ft 22 kts 167°
2026-05-04 01:49 52.33972 4.71270 -9 ft 24 kts 184°
2026-05-04 01:49 52.33783 4.71253 -7 ft 27 kts 184°
2026-05-04 01:50 52.33599 4.71235 -7 ft 27 kts 184°
2026-05-04 01:50 52.33405 4.71218 -7 ft 28 kts 184°
2026-05-04 01:50 52.33255 4.71223 -7 ft 17 kts 158°
2026-05-04 01:50 52.33167 4.71359 -7 ft 17 kts 131°
2026-05-04 01:51 52.33134 4.71487 -7 ft 11 kts 74°
2026-05-04 01:51 52.33143 4.71625 -7 ft 13 kts 106°
2026-05-04 01:51 52.33075 4.71784 -7 ft 20 kts 131°
2026-05-04 01:51 52.32972 4.71974 -5 ft 22 kts 131°
2026-05-04 01:52 52.32874 4.72158 -3 ft 21 kts 131°
2026-05-04 01:52 52.32766 4.72358 -3 ft 25 kts 132°
2026-05-04 01:52 52.32639 4.72578 -4 ft 26 kts 139°
2026-05-04 01:52 52.32496 4.72781 -6 ft 27 kts 139°
2026-05-04 01:53 52.32348 4.72988 -7 ft 27 kts 139°
2026-05-04 01:53 52.32206 4.73188 -7 ft 26 kts 139°
2026-05-04 01:53 52.32081 4.73383 -3 ft 23 kts 122°
2026-05-04 01:53 52.32052 4.73642 -3 ft 23 kts 93°
2026-05-04 01:54 52.32043 4.73912 -6 ft 24 kts 93°
2026-05-04 01:54 52.32035 4.74069 -7 ft 8 kts 101°
2026-05-04 01:54 52.32004 4.74158 -7 ft 10 kts 145°
2026-05-04 01:54 52.31879 4.74184 -7 ft 28 kts 183°
2026-05-04 01:55 52.31682 4.74163 -7 ft 27 kts 184°
2026-05-04 01:55 52.31502 4.74146 -3 ft 24 kts 183°
2026-05-04 01:55 52.31403 4.74152 -3 ft 9 kts 142°
2026-05-04 01:55 52.31390 4.74307 -4 ft 23 kts 87°
2026-05-04 01:56 52.31400 4.74597 -5 ft 25 kts 87°
2026-05-04 01:56 52.31410 4.74883 -2 ft 25 kts 87°
2026-05-04 01:56 52.31418 4.75172 0 ft 25 kts 87°
2026-05-04 01:56 52.31430 4.75465 1 ft 25 kts 86°
2026-05-04 01:57 52.31440 4.75763 1 ft 27 kts 87°
2026-05-04 01:57 52.31451 4.76079 1 ft 27 kts 87°
2026-05-04 01:57 52.31462 4.76395 0 ft 28 kts 87°
2026-05-04 01:57 52.31473 4.76718 0 ft 27 kts 87°
2026-05-04 01:58 52.31483 4.77011 3 ft 20 kts 86°
2026-05-04 01:58 52.31458 4.77197 4 ft 16 kts 127°
2026-05-04 01:58 52.31375 4.77358 7 ft 21 kts 131°
2026-05-04 01:58 52.31290 4.77485 7 ft 15 kts 156°
2026-05-04 01:59 52.31177 4.77500 9 ft 22 kts 183°
2026-05-04 01:59 52.31002 4.77484 12 ft 24 kts 184°
2026-05-04 01:59 52.30875 4.77473 10 ft 8 kts 185°
2026-05-04 01:59 52.30839 4.77405 11 ft 8 kts 265°
2026-05-04 02:00 52.30841 4.77317 12 ft 7 kts 273°
2026-05-04 02:00 52.30839 4.77247 12 ft 2 kts 235°
2026-05-04 02:00 52.30815 4.77230 12 ft 3 kts 191°
2026-05-04 02:00 52.30794 4.77227 11 ft 1 kts 184°
2026-05-04 02:01 52.30789 4.77226 11 ft 0 kts 184°